Weather Roundup
Issued by NWS Springfield, MO

Home | Current Version | Previous Version | Text Only | Print | Product List | Glossary On
Versions: 1 2 3 4 5 6 7 8 9 10 11 12 13 14 15 16 17 18 19 20 21 22 23 24 25 26 27 28 29 30 31 32 33 34 35 36 37 38 39 40 41 42 43 44 45 46 47 48 49 50
420
NZUS99 KSGF 241957
HRRSGF

HOURLY WEATHER
NATIONAL WEATHER SERVICE SPRINGFIELD MO
200 PM CST FRI FEB 24 2017

......SGF CWA......

CITY           SKY/WX    TMP DP  RH WIND       PRES   REMARKS
SPRINGFIELD    MOSUNNY   48  31  51 MISG      29.74F
JOPLIN         MOSUNNY   47  28  47 NW17G28   29.79F
ROLLA          LGT RAIN  49  36  61 W17G26    29.66R

......SURROUNDING SGF CWA......

CITY           SKY/WX    TMP DP  RH WIND       PRES   REMARKS
CHANUTE        MOSUNNY   43  24  47 W21G29    29.81S
PARSONS        MOSUNNY   47  25  42 W18G31    29.83F
COFFEYVILLE    MOSUNNY   47  26  44 W23G32    29.83F
EMPORIA        CLOUDY    34  25  69 NW18G31   29.84R WCI  23
HARRISON AR    MOSUNNY   52  36  54 W10G23    29.74R

......KANSAS AND MISSOURI......

CITY           SKY/WX    TMP DP  RH WIND       PRES   REMARKS
KANSAS CTY INT FLURRIES  33  29  85 NW20G29   29.75R WCI  21
SEDALIA        CLOUDY    46  31  55 W16G24    29.70S
ST JOSEPH      FLURRIES  30  28  92 NW21      29.79R WCI  17
ST LOUIS       CLOUDY    55  41  59 W15       29.62R
WICHITA        CLOUDY    36  21  54 NW25G31   29.90R WCI  24
TOPEKA         CLOUDY    33  28  81 NW16G28   29.82R WCI  23
OLATHE         CLOUDY    35  31  85 NW12G24   29.75R WCI  27

......TENNESSEE......

CITY           SKY/WX    TMP DP  RH WIND       PRES   REMARKS
MEMPHIS        NOT AVBL
NASHVILLE      PTSUNNY   80  52  37 S23G37    29.65F

......ARKANSAS.......

CITY           SKY/WX    TMP DP  RH WIND       PRES   REMARKS
FAYETTEVILLE   SUNNY     51  33  50 W12G22    29.78F
FT SMITH       SUNNY     57  33  40 W17       29.79F
LITTLE ROCK    PTSUNNY   65  51  60 NW18      29.70R

......OKLAHOMA.......

CITY           SKY/WX    TMP DP  RH WIND       PRES   REMARKS
TULSA          SUNNY     51  26  37 NW22      29.84F
PONCA CITY     PTSUNNY   45  24  43 NW20G29   29.89F
MCALESTER      MOSUNNY   58  28  32 W14G21    29.84F
OKLAHOMA CITY  SUNNY     50  24  36 N21G28    29.89F

......IOWA............

CITY           SKY/WX    TMP DP  RH WIND       PRES   REMARKS
DES MOINES     NOT AVBL
QUAD CITIES    CLOUDY    41  36  82 NW8       29.53S HAZE

......ILLINOIS........

CITY           SKY/WX    TMP DP  RH WIND       PRES   REMARKS
QUINCY         NOT AVBL
CHICAGO        CLOUDY    40  37  89 N12       29.44S WCI  33




USA.gov is the U.S. government's official web portal to all federal, state and local government web resources and services.